This demonstration page uses our WeatherBlox Daily Observations layout. Learn more.

Left ArrowRight Arrow

39.92423, -83.80882

Hourly Observations for November 10, 2018

Temp ( °F °C ) Dew Point ( °F °C ) Humidity (%) Winds ( mph kmh ) Pressure ( in mb ) Visibility ( mi km ) Precip ( " mm )
12:56 am 00:56 Mostly Clear 28 -2.2 22 -5.6 78 78 W 15 24 30.17 1022 10 16.0934 N/A
1:56 am 01:56 Partly Cloudy 28 -2.2 22 -5.6 78 78 W 17 28 30.18 1022 10 16.0934 N/A
2:25 am 02:25 Mostly Cloudy 28 -2 21 -6 74 74 W 21 33 30.21 1023 10 16.0934 N/A
2:38 am 02:38 Mostly Cloudy 27 -3 19 -7 74 74 W 14 22 30.24 1024 10 16.0934 N/A
2:56 am 02:56 Partly Cloudy 27 -2.8 20 -6.7 75 75 W 15 24 30.19 1023 10 16.0934 N/A
3:56 am 03:56 Cloudy 27 -2.8 19 -7.2 72 72 W 17 28 30.21 1023 10 16.0934 N/A
4:56 am 04:56 Cloudy 23 -5 16 -8.9 74 74 W 23 37 30.25 1024 10 16.0934 N/A
5:56 am 05:56 Clear 20 -6.7 12 -11.1 71 71 W 18 30 30.29 1026 10 16.0934 N/A
6:56 am 06:56 Clear 20 -6.7 13 -10.6 74 74 W 16 26 30.32 1027 10 16.0934 N/A
7:44 am 07:44 Mostly Cloudy 21 -6 14 -10 74 74 W 18 30 30.39 1029 10 16.0934 N/A
7:56 am 07:56 Cloudy 21 -6.1 14 -10 74 74 W 21 33 30.35 1028 10 16.0934 N/A
8:56 am 08:56 Cloudy with Light Snow 22 -5.6 16 -8.9 78 78 W 16 26 30.38 1029 10 16.0934 N/A
9:56 am 09:56 Cloudy 23 -5 16 -8.9 74 74 WNW 14 22 30.42 1030 10 16.0934 N/A
10:56 am 10:56 Mostly Cloudy 25 -3.9 17 -8.3 72 72 W 13 20 30.43 1030 9 14.48406 N/A
11:21 am 11:21 Partly Cloudy 27 -3 18 -8 69 69 WSW 15 24 30.45 1031 10 16.0934 N/A
11:56 am 11:56 Partly Cloudy 28 -2.2 21 -6.1 75 75 W 15 24 30.43 1031 10 16.0934 N/A
12:56 pm 12:56 Mostly Cloudy 30 -1.1 21 -6.1 69 69 WNW 12 19 30.42 1030 10 16.0934 N/A
1:56 pm 13:56 Mostly Cloudy 31 -0.6 21 -6.1 67 67 WNW 14 22 30.41 1030 10 16.0934 N/A
2:56 pm 14:56 Partly Cloudy 32 undefined 20 -6.7 61 61 NNW 10 17 30.41 1030 10 16.0934 N/A
3:56 pm 15:56 Mostly Cloudy 30 -1.1 21 -6.1 69 69 NW 10 17 30.42 1030 10 16.0934 N/A
4:56 pm 16:56 Mostly Sunny 30 -1.1 22 -5.6 72 72 NW 6 9 30.41 1030 10 16.0934 N/A
5:56 pm 17:56 Clear 26 -3.3 20 -6.7 78 78 NNW 6 9 30.41 1030 10 16.0934 N/A
6:56 pm 18:56 Clear 26 -3.3 20 -6.7 78 78 N 3 6 30.41 1030 10 16.0934 N/A
7:56 pm 19:56 Clear 25 -3.9 22 -5.6 88 88 N N/A 30.42 1030 10 16.0934 N/A
8:56 pm 20:56 Clear 23 -5 21 -6.1 92 92 SW 3 6 30.43 1031 10 16.0934 N/A
9:56 pm 21:56 Clear 21 -6.1 19 -7.2 92 92 ESE 3 6 30.42 1030 10 16.0934 N/A
10:56 pm 22:56 Clear 19 -7.2 18 -7.8 96 96 ESE 5 7 30.41 1030 10 16.0934 N/A
11:56 pm 23:56 Clear 19 -7.2 18 -7.8 96 96 ESE 3 6 30.41 1030 10 16.0934 N/A

Powered by AerisWeather